Location: Hungerford
(51.4167°N, 1.5167°W)
Time: 13:52:15
(UTC+00:00)

Terra - Pass Details

Date: 18 September 2020
Orbit: 701 x 703 km, 98.2° (Epoch: 26 October)

Event Time Altitude Azimuth Distance (km) Brightness Sun altitude
Exits shadow 21:58:06 42° 343° (NNW) 1,002 2.9 -31.2°
Drops below altitude 10° 22:01:16 10° 345° (NNW) 2,184 5.1 -31.5°
Sets 22:03:32 0° 346° (NNW) 3,107 6.1 -31.7°
